If you wish to contribute or participate in the discussions about articles you are invited to join SKYbrary as a registered user

 Actions

Fort Worth

From SKYbrary Wiki

KAFW
Airport
ICAO: KAFW
Summary
Name Fort Worth
Region North America
Territory United States US.gif
Location Fort Worth, Tarrant County, Texas
Serving
Coordinates 32° 59' 36.82" N, 97° 18' 34.86" W
Runways
Designator Length Width Surface ROPS
16L/34R 2926 m9,599.738 ft
46 m150.919 ft
CON yes/yes
16R/34L 2505 m8,218.504 ft
46 m150.919 ft
CON yes/yes


METAR
Observation KAFW 052253Z 04005KT 10SM TS SCT044CB BKN080 BKN300 33/23 A2980 RMK AO2 LTG DSNT E AND SE TSE29B33 SLP075 OCNL LTGIC E-SE TS E-SE MOV SE T03330228
Station Fort Worth, Fort Worth Alliance Airport
Date/Time 05 July 2020 22:53:00
Wind direction 40°
Wind speed 05 kts
Lowest cloud amount scattered clouds
Temperature 33.3°C
Dew point 22.8°C
Humidity 54%
QNH hPa
Weather condition thunderstorm

Fort Worth Alliance Airport

ICAO: KAFW IATA: AFW

Description

Fort Worth Alliance Airport is a city-owned public-use airport located 23 km north of the central business district of Fort Worth, city in Tarrant County, Texas, United States.

Climatology

Maps

Terrain

Loading map...

Airport Layout

Loading map...


Accidents & Serious Incidents at or in vicinity of KAFW

None on SKYbrary